This is the latest recevied weather packets stored in our database for station/object CA3VLN-10. If no packets are shown the sender has not sent any weather packets the latest 10 day(s).
| Time | Temp. | Humidity | Pressure | Rain* | Wind** | Luminosity | Snow |
|---|---|---|---|---|---|---|---|
| 1777740479 | 22.78° C | 37% | 1005.3 hPa | - | - | - | - |
| 1777739579 | 22.78° C | 38% | 1005.3 hPa | - | - | - | - |
| 1777738679 | 22.22° C | 38% | 1005.5 hPa | - | - | - | - |
| 1777737779 | 22.22° C | 38% | 1005.6 hPa | - | - | - | - |
| 1777736878 | 21.67° C | 40% | 1005.8 hPa | - | - | - | - |
| 1777735978 | 21.11° C | 39% | 1005.9 hPa | - | - | - | - |
| 1777735071 | 21.11° C | 40% | 1006.1 hPa | - | - | - | - |
| 1777734171 | 20.56° C | 40% | 1006.2 hPa | - | - | - | - |
| 1777733271 | 20° C | 41% | 1006.2 hPa | - | - | - | - |
| 1777732371 | 20° C | 42% | 1006.4 hPa | - | - | - | - |
| 1777731471 | 19.44° C | 42% | 1006.2 hPa | - | - | - | - |
| 1777730571 | 18.89° C | 43% | 1006.3 hPa | - | - | - | - |
| 1777729670 | 18.33° C | 43% | 1006.5 hPa | - | - | - | - |
| 1777728771 | 17.78° C | 44% | 1006.5 hPa | - | - | - | - |
| 1777727870 | 17.22° C | 44% | 1006.3 hPa | - | - | - | - |
| 1777726970 | 17.22° C | 45% | 1006.5 hPa | - | - | - | - |
| 1777726070 | 16.67° C | 46% | 1006.4 hPa | - | - | - | - |
| 1777725170 | 16.11° C | 46% | 1006.4 hPa | - | - | - | - |
| 1777724270 | 15.56° C | 48% | 1006.3 hPa | - | - | - | - |
| 1777723370 | 15.56° C | 50% | 1006.3 hPa | - | - | - | - |
| 1777722470 | 15.56° C | 51% | 1006.3 hPa | - | - | - | - |
| 1777721652 | 15.56° C | 52% | 1006.1 hPa | - | - | - | - |
| 1777721570 | 15.56° C | 52% | 1006.1 hPa | - | - | - | - |
| 1777720670 | 15° C | 52% | 1006 hPa | - | - | - | - |
| 1777720081 | 15° C | 52% | 1006.1 hPa | - | - | - | - |
* Rain since midnight (hover to see other rain measurements)
** Current wind speed in m/s (hover to see current wind gust speed)